This is the latest recevied weather packets stored in our database for station/object DG1ROH. If no packets are shown the sender has not sent any weather packets the latest 1 day(s).
| Time | Temp. | Humidity | Pressure | Rain* | Wind** | Luminosity | Snow |
|---|---|---|---|---|---|---|---|
| 1778019006 | 11.11° C | 92% | 1007.7 hPa | 0 mm | 1.34 m/s, 344° | 0 W/m² | - |
| 1778018883 | 11.11° C | 92% | 1007.7 hPa | 0 mm | 1.34 m/s, 50° | 0 W/m² | - |
| 1778018767 | 11.11° C | 92% | 1007.7 hPa | 0 mm | 1.34 m/s, 57° | 0 W/m² | - |
| 1778018643 | 11.11° C | 92% | 1007.6 hPa | 0 mm | 1.34 m/s, 74° | 0 W/m² | - |
| 1778018523 | 11.11° C | 92% | 1007.7 hPa | 0 mm | 1.34 m/s, 85° | 0 W/m² | - |
| 1778018401 | 11.11° C | 92% | 1007.8 hPa | 0 mm | 1.34 m/s, 39° | 0 W/m² | - |
| 1778018282 | 11.11° C | 92% | 1007.8 hPa | 0 mm | 1.34 m/s, 20° | 0 W/m² | - |
| 1778018161 | 11.11° C | 92% | 1007.9 hPa | 0 mm | 1.34 m/s, 77° | 0 W/m² | - |
| 1778018042 | 11.11° C | 92% | 1007.8 hPa | 0 mm | 0.89 m/s, 34° | 0 W/m² | - |
| 1778017922 | 11.11° C | 92% | 1007.8 hPa | 0 mm | 0.89 m/s, 59° | 0 W/m² | - |
| 1778017802 | 11.11° C | 92% | 1007.7 hPa | 0 mm | 0.89 m/s, 44° | 0 W/m² | - |
| 1778017682 | 11.11° C | 92% | 1007.7 hPa | 0 mm | 0.89 m/s, 18° | 0 W/m² | - |
| 1778017562 | 11.11° C | 92% | 1007.7 hPa | 0 mm | 0.89 m/s, 50° | 0 W/m² | - |
| 1778017442 | 11.11° C | 92% | 1007.7 hPa | 0 mm | 1.34 m/s, 48° | 0 W/m² | - |
| 1778017322 | 11.11° C | 92% | 1007.7 hPa | 0 mm | 1.34 m/s, 69° | 0 W/m² | - |
| 1778017202 | 11.11° C | 92% | 1007.7 hPa | 0 mm | 1.34 m/s, 28° | 0 W/m² | - |
| 1778017084 | 11.11° C | 92% | 1007.8 hPa | 0 mm | 1.34 m/s, 86° | 0 W/m² | - |
| 1778016963 | 11.11° C | 92% | 1007.8 hPa | 0 mm | 1.34 m/s, 59° | 0 W/m² | - |
| 1778016844 | 11.11° C | 91% | 1007.8 hPa | 0 mm | 1.34 m/s, 40° | 0 W/m² | - |
| 1778016723 | 11.11° C | 91% | 1008 hPa | 0 mm | 1.34 m/s, 78° | 0 W/m² | - |
| 1778016604 | 11.11° C | 91% | 1008 hPa | 0 mm | 1.34 m/s, 37° | 0 W/m² | - |
| 1778016483 | 11.11° C | 91% | 1008 hPa | 0 mm | 0.89 m/s, 69° | 0 W/m² | - |
| 1778016363 | 11.11° C | 91% | 1008 hPa | 0 mm | 1.34 m/s, 350° | 0 W/m² | - |
| 1778016243 | 11.11° C | 91% | 1008 hPa | 0 mm | 1.34 m/s, 67° | 0 W/m² | - |
| 1778016123 | 11.67° C | 91% | 1008 hPa | 0 mm | 1.34 m/s, 15° | 0 W/m² | - |
* Rain latest hour (hover to see other rain measurements)
** Current wind speed in m/s (hover to see current wind gust speed)